Weather History for KCVG - November, 2013

Change the Weather History Date:

Saturday, November 9, 2013

  Actual Average Record
Temperature  
Mean Temperature 48 °F 48 °F  
Max Temperature 61 °F 57 °F 76 °F (1975)
Min Temperature 35 °F 39 °F 15 °F (1995)
Degree Days  
Heating Degree Days 17 17  
Month to date heating degree days 138 141  
Since 1 July heating degree days 471 503  
Cooling Degree Days 0 0  
Month to date cooling degree days 0 0  
Year to date cooling degree days 1150 1121  
Moisture  
Dew Point 31 °F    
Average Humidity 52    
Maximum Humidity 70    
Minimum Humidity 33    
Precipitation  
Precipitation 0.00 in 0.09 in 1.42 in (1895)
Month to date precipitation 0.44 0.96  
Year to date precipitation 42.82 36.68  
Snow  
Snow 0.00 in 0.00 in 1.00 in (1996)
Month to date snowfall 0.0 0.1  
Since 1 July snowfall T 0.5  
Since 1 September snowfall T 0.5  
Snow Depth 0.00 in    
Sea Level Pressure  
Sea Level Pressure 30.13 in    
Wind  
Wind Speed 10 mph (SSW)    
Max Wind Speed 21 mph    
Max Gust Speed 28 mph    
Visibility 10 miles    
Events      
T = Trace of Precipitation, MM = Missing Value Source: NWS Daily Summary

Daily Weather History Graph

Daily Weather History Graph

Search for Another Location

Airport or City:

Trip Planner

Search our weather history database for the weather conditions in past years. The results will help you decide how hot, cold, wet, or windy it might be!

Date:

Astronomy

Nov. 09, 2013 Rise Set
Actual Time 7:15 AM EST 5:29 PM EST
Civil Twilight 6:47 AM EST 5:57 PM EST
Nautical Twilight 6:15 AM EST 6:29 PM EST
Astronomical Twilight 5:43 AM EST 7:00 PM EST
Moon 12:52 PM EST (11/9) 11:57 PM EST (11/9)
Length of Visible Light 11h 10m
Length of Day
10h 14m
Waxing Crescent, 44% of the Moon is Illuminated
Nov 9
Waxing Crescent
Nov 10
First Quarter
Nov 17
Full
Nov 25
Last Quarter
Dec 2
New

Hourly Weather History & Observations

Time (EST) Temp. Windchill Dew Point Humidity Pressure Visibility Wind Dir Wind Speed Gust Speed Precip Events Conditions
12:52 AM 39.9 °F 35.8 °F 30.0 °F 68% 30.24 in 10.0 mi South 5.8 mph - N/A   Mostly Cloudy
1:52 AM 39.0 °F 33.4 °F 28.9 °F 67% 30.22 in 10.0 mi South 8.1 mph - N/A   Partly Cloudy
2:52 AM 39.0 °F 34.8 °F 28.0 °F 65% 30.21 in 10.0 mi South 5.8 mph - N/A   Clear
3:52 AM 36.0 °F 30.3 °F 27.0 °F 70% 30.21 in 10.0 mi South 6.9 mph - N/A   Clear
4:52 AM 37.9 °F 32.1 °F 27.0 °F 65% 30.18 in 10.0 mi South 8.1 mph - N/A   Clear
5:52 AM 37.9 °F 31.5 °F 26.1 °F 62% 30.18 in 10.0 mi South 9.2 mph - N/A   Clear
6:52 AM 39.0 °F 31.4 °F 26.1 °F 60% 30.18 in 10.0 mi South 12.7 mph - N/A   Partly Cloudy
7:52 AM 39.0 °F 32.3 °F 26.1 °F 60% 30.17 in 10.0 mi South 10.4 mph - N/A   Partly Cloudy
8:52 AM 43.0 °F 37.2 °F 26.1 °F 51% 30.17 in 10.0 mi SSW 10.4 mph - N/A   Partly Cloudy
9:52 AM 48.9 °F - 28.9 °F 46% 30.15 in 10.0 mi SW 10.4 mph 20.7 mph N/A   Partly Cloudy
10:52 AM 53.1 °F - 30.9 °F 43% 30.13 in 10.0 mi SW 15.0 mph 24.2 mph N/A   Partly Cloudy
11:52 AM 57.0 °F - 30.0 °F 36% 30.11 in 10.0 mi SW 13.8 mph 23.0 mph N/A   Partly Cloudy
12:52 PM 59.0 °F - 30.9 °F 35% 30.09 in 10.0 mi WSW 13.8 mph 20.7 mph N/A   Partly Cloudy
1:52 PM 60.1 °F - 32.0 °F 35% 30.06 in 10.0 mi SW 17.3 mph 26.5 mph N/A   Partly Cloudy
2:52 PM 60.1 °F - 32.0 °F 35% 30.06 in 10.0 mi SW 16.1 mph 26.5 mph N/A   Partly Cloudy
3:52 PM 61.0 °F - 32.0 °F 34% 30.05 in 10.0 mi SW 16.1 mph 24.2 mph N/A   Partly Cloudy
4:52 PM 59.0 °F - 33.1 °F 38% 30.05 in 10.0 mi SW 11.5 mph 18.4 mph N/A   Clear
5:52 PM 57.0 °F - 33.1 °F 40% 30.06 in 10.0 mi SSW 9.2 mph - N/A   Partly Cloudy
6:52 PM 54.0 °F - 33.1 °F 45% 30.07 in 10.0 mi SW 5.8 mph - N/A   Clear
7:52 PM 54.0 °F - 35.1 °F 49% 30.09 in 10.0 mi SW 9.2 mph - N/A   Clear
8:52 PM 53.1 °F - 35.1 °F 50% 30.10 in 10.0 mi SW 8.1 mph - N/A   Clear
9:52 PM 53.1 °F - 36.0 °F 52% 30.11 in 10.0 mi SW 9.2 mph - N/A   Clear
10:52 PM 52.0 °F - 37.0 °F 57% 30.11 in 10.0 mi SW 8.1 mph - N/A   Clear
11:52 PM 51.1 °F - 37.9 °F 61% 30.12 in 10.0 mi WSW 8.1 mph - N/A   Clear